AO-07 1 07530U 74089B 18199.54830178 -.00000025 00000-0 12434-3 0 9992 2 07530 101.6890 166.4017 0011668 275.5593 198.6425 12.53633447998521 UO-11 1 14781U 84021B 18199.57710244 +.00000021 +00000-0 +87325-5 0 9997 2 14781 097.6467 234.4506 0008073 350.7197 009.3867 14.83017960828095 LO-19 1 20442U 90005G 18199.42591730 +.00000010 +00000-0 +19921-4 0 9992 2 20442 098.6108 137.7277 0012847 060.8873 299.3596 14.32900250488306 HUBBLE 1 20580U 90037B 18199.60850068 .00000376 00000-0 12011-4 0 9990 2 20580 28.4690 267.3930 0002915 115.3684 33.8884 15.09066514350224 MET-2/21 1 22782U 93055A 18199.61426094 -.00000016 +00000-0 -27670-4 0 9998 2 22782 082.5479 068.9935 0023168 041.1769 014.7772 13.83811519256254 AO-27 1 22825U 93061C 18199.49637318 -.00000006 +00000-0 +15426-4 0 9996 2 22825 098.8647 176.1831 0007312 253.8448 106.1929 14.30034772293774 IO-26 1 22826U 93061D 18199.50594490 -.00000013 00000-0 12672-4 0 9990 2 22826 98.8586 176.2267 0007896 242.0235 118.0148 14.30366425294232 FO-29 1 24278U 96046B 18199.50855893 -.00000065 +00000-0 -30715-4 0 9992 2 24278 098.5164 033.9448 0350921 029.8171 332.2468 13.53084472082226 NOAA-15 1 25338U 98030A 18199.55864978 +.00000051 +00000-0 +40276-4 0 9990 2 25338 098.7681 216.0106 0011394 132.2428 227.9719 14.25866153049234 GO-32 1 25397U 98043D 18199.37726121 -.00000019 00000-0 10592-4 0 9999 2 25397 98.6508 139.3021 0000500 356.2867 3.8308 14.23648394 40162 ISS 1 25544U 98067A 18199.91476208 .00001559 00000-0 30934-4 0 9998 2 25544 51.6399 220.5676 0003966 332.2447 94.0702 15.53990308123452 NO-44 1 26931U 01043C 18199.88699502 -.00000044 00000-0 15100-4 0 9994 2 26931 67.0510 147.6136 0007972 270.0435 89.9752 14.30511055877081 SO-50 1 27607U 02058C 18199.86488001 -.00000042 00000-0 14901-4 0 9996 2 27607 64.5557 353.2034 0068494 321.5488 38.0744 14.75464976837634 CO-55 1 27844U 03031E 18199.54870042 .00000014 00000-0 26217-4 0 9997 2 27844 98.6859 207.7419 0008518 282.8255 77.1970 14.22123050780653 CO-57 1 27848U 03031J 18199.86865524 .00000023 00000-0 30447-4 0 9995 2 27848 98.6946 208.4657 0008554 293.8665 66.1616 14.21726312780567 RS-22 1 27939U 03042A 18199.84812855 .00000072 00000-0 21459-4 0 9992 2 27939 97.9950 338.1719 0014018 52.5594 101.2431 14.66701307791450 NOAA-18 1 28654U 05018A 18199.56002191 -.00000041 +00000-0 +30023-5 0 9990 2 28654 099.1426 235.6479 0015009 043.1909 317.0436 14.12380646678117 CO-58 1 28895U 05043F 18199.86211848 .00000096 00000-0 27304-4 0 9995 2 28895 97.9131 350.0414 0016067 333.7722 26.2666 14.63562939678511 Falconsat-3 1 30776U 07006E 18199.10754596 .00001756 00000-0 52597-4 0 9992 2 30776 35.4363 69.8877 0003777 301.4929 58.5428 15.34651732629079 CO-65 1 32785U 08021C 18199.51590119 +.00000160 +00000-0 +23018-4 0 9990 2 32785 097.5464 210.1979 0011663 298.1439 061.8599 14.88146158553764 AAUSAT2 1 32788U 08021F 18199.62598962 .00000636 00000-0 64094-4 0 9996 2 32788 97.5200 224.8201 0010365 239.1853 120.8348 14.94392769554877 DO-64 1 32789U 08021G 18199.40395030 .00000669 00000-0 49782-4 0 9997 2 32789 97.5098 253.4207 0012392 183.1389 176.9763 15.06161965556489 CO-66 1 32791U 08021J 18199.48625629 +.00000178 +00000-0 +23549-4 0 9996 2 32791 097.5349 215.5984 0011755 275.0896 084.8981 14.90587375554091 RS-30 1 32953U 08025A 18199.83064887 .00000032 00000-0 16073-3 0 9994 2 32953 82.5039 352.9951 0019881 139.3827 220.8740 12.43084373460700 PRISM 1 33493U 09002B 18197.72677445 -.00000067 00000-0 -26685-6 0 9999 2 33493 98.1276 100.9510 0014213 217.7281 142.2982 14.96259108514768 NOAA-19 1 33591U 09005A 18199.52499726 +.00000084 +00000-0 +70682-4 0 9996 2 33591 099.1437 178.1774 0013019 236.8222 123.1701 14.12293707486335 TISAT-1 1 36799U 10035E 18199.32606255 .00000447 00000-0 51409-4 0 9998 2 36799 98.1106 336.3744 0013712 105.3464 254.9269 14.90834920434792 JUGNU 1 37839U 11058B 18199.29099622 +.00000307 +00000-0 +21867-4 0 9990 2 37839 019.9601 208.6432 0018756 229.3708 235.7468 14.12623825349668 SRMSAT 1 37841U 11058D 18199.57487400 +.00000300 +00000-0 +19475-4 0 9994 2 37841 019.9713 256.7747 0011995 114.7981 032.6592 14.10610097349225 AO-71 1 37854U 11061E 18199.18320850 +.00000542 +00000-0 +36436-4 0 9998 2 37854 101.7016 280.0198 0163252 341.6139 017.9214 15.05549622366041 HRBE 1 37855U 11061F 18199.53032734 +.00000479 +00000-0 +32726-4 0 9996 2 37855 101.7149 278.0940 0176169 349.5358 010.2205 15.04538929365897 ALMASAT-1 1 38078U 12006B 18199.85413295 .00034147 40091-5 29349-3 0 9998 2 38078 69.4308 129.0145 0231391 57.9666 2.9702 15.42428282345536 HORYU-2 1 38340U 12025D 18199.53868523 +.00000132 +00000-0 +27459-4 0 9993 2 38340 098.3645 222.3329 0012887 109.3869 250.8733 14.75575608321327 RS-40 1 38735U 12041C 18199.83777372 .00000005 00000-0 -34161-4 0 9991 2 38735 82.4756 76.8866 0015866 244.9344 115.0089 12.42576904270954 BEESAT-3 1 39134U 13015E 18199.59986421 +.00000891 +00000-0 +51518-4 0 9994 2 39134 064.8635 025.2879 0008057 216.3391 143.7190 15.19256000289296 BEESAT-2 1 39136U 13015G 18199.06071107 .00000463 00000-0 33918-4 0 9993 2 39136 64.8694 43.6617 0019404 233.1949 126.7396 15.16211915289271 ZACUBE-1 1 39417U 13066B 18199.53015449 +.00000134 +00000-0 +23201-4 0 9999 2 39417 097.5851 226.4921 0060371 053.5361 307.1395 14.80954134251439 TRITON-1 1 39427U 13066M 18199.86612754 .00000155 00000-0 32497-4 0 9998 2 39427 97.6425 193.6984 0114595 157.1422 203.4944 14.67687607249224 GOMX-1 1 39430U 13066Q 18199.84884302 .00000139 00000-0 34466-4 0 9990 2 39430 97.6995 174.4477 0150258 230.2858 128.5019 14.59098937247777 LO-74 1 39440U 13066AA 18199.53526892 +.00000162 +00000-0 +29454-4 0 9991 2 39440 097.6003 212.9082 0082092 093.6863 267.3739 14.75692525249342 AO-73 1 39444U 13066AE 18199.84717921 .00000214 00000-0 32782-4 0 9990 2 39444 97.5859 228.3574 0059392 47.8781 312.7458 14.81740384250347 SPROUT 1 39770U 14029E 18199.75180971 .00000547 00000-0 67351-4 0 9990 2 39770 97.8786 300.5393 0010581 103.8681 256.3699 14.86899098225054 DUCHIFAT-1 1 40021U 14033M 18199.34603953 .00000263 00000-0 32903-4 0 9991 2 40021 97.9150 118.1212 0014513 76.9030 283.3807 14.90339712221594 NANOSATCBR1 1 40024U 14033Q 18199.33540044 .00000266 00000-0 33812-4 0 9997 2 40024 97.9082 116.2918 0013768 79.1223 281.1543 14.89598490221516 EO-79 1 40025U 14033R 18199.80458427 .00000185 00000-0 25754-4 0 9999 2 40025 97.9038 115.1376 0013998 81.9089 278.3715 14.88738908221495 DTUSAT-2 1 40030U 14033W 18199.71068594 .00000213 00000-0 29071-4 0 9995 2 40030 97.8983 113.6988 0013459 77.6797 282.5925 14.88345529221427 EO-80 1 40032U 14033Y 18199.23207892 +.00000216 +00000-0 +29431-4 0 9993 2 40032 097.8991 113.2243 0013410 079.6862 280.5866 14.88283042220826 ANTELSAT 1 40034U 14033AA 18199.56810687 +.00000152 +00000-0 +29953-4 0 9991 2 40034 097.8070 075.0508 0060344 096.7202 264.0879 14.73943172218774 VELOX-1 1 40057U 14034E 18199.80115073 .00000219 00000-0 38330-4 0 9994 2 40057 98.2068 311.3992 0010064 221.5398 138.5054 14.77452224218319 DAURIA DX 1 1 40071U 14037C 18199.83224043 .00000079 00000-0 17563-4 0 9993 2 40071 98.3804 332.6127 0007700 213.4633 146.6094 14.81172640217684 UKUBE-1 1 40074U 14037F 18199.84577509 .00000178 00000-0 28657-4 0 9991 2 40074 98.3895 338.7078 0003865 203.6447 156.4619 14.83825606217996 HODOYOSHI-1 1 40299U 14070B 18199.73711911 .00000636 00000-0 30013-4 0 9990 2 40299 97.3775 280.9537 0014018 134.5130 342.2639 15.22948890205283 CHUBUSAT-1 1 40300U 14070C 18199.79850326 .00000661 00000-0 32170-4 0 9997 2 40300 97.3620 276.8178 0020647 147.7288 0.9048 15.21624072205087 QSAT-EOS 1 40301U 14070D 18199.82856882 .00001609 00000-0 66993-4 0 9998 2 40301 97.3585 278.2710 0027534 138.1979 1.1500 15.24862562205244 FIREBIRD FU3 1 40377U 15003B 18199.70954022 .00001520 00000-0 65368-4 0 9997 2 40377 99.0839 107.7047 0131823 125.5370 235.8235 15.17327317191105 FIREBIRD FU4 1 40378U 15003C 18199.69820385 .00001498 00000-0 64437-4 0 9990 2 40378 99.0841 107.7503 0132034 125.4682 235.8953 15.17336340191109 GRIFEX 1 40379U 15003D 18199.79341100 .00001011 00000-0 48057-4 0 9996 2 40379 99.0865 103.8513 0138868 138.2179 222.9751 15.14415658190882 NO-84 1 40654U 15025D 18199.31228968 +.00007751 +00000-0 +12639-3 0 03560 2 40654 054.9933 255.6377 0155661 187.3611 172.5161 15.41268839060646 NO-83 1 40655U 15025E 18199.30987172 +.00013604 +00000-0 +14170-3 0 04139 2 40655 054.9747 195.0499 0101349 223.2488 136.0696 15.58730574061139 DEORBITSAIL 1 40719U 15032E 18199.69780731 .00000302 00000-0 50655-4 0 9991 2 40719 97.9416 92.6969 0015431 310.8693 49.1179 14.76468026162828 NUDT-PHONESAT 1 40900U 15049B 18199.80958394 .00001643 00000-0 76141-4 0 9993 2 40900 97.4406 207.6981 0011604 280.4030 79.5898 15.21454080156724 XW-2A 1 40903U 15049E 18199.80908325 .00001510 00000-0 39129-4 0 9993 2 40903 97.3818 234.9769 0012320 277.1865 82.7981 15.40621592158675 XW-2C 1 40906U 15049H 18199.81885754 .00000479 00000-0 28947-4 0 9996 2 40906 97.4599 202.7314 0013345 281.9171 78.0565 15.15239181156287 XW-2D 1 40907U 15049J 18199.83415473 .00000516 00000-0 30796-4 0 9993 2 40907 97.4573 202.4398 0012686 279.3853 80.5945 15.15393776156296 LILACSAT-2 1 40908U 15049K 18199.87928940 .00000280 00000-0 19210-4 0 9992 2 40908 97.4686 201.8017 0014387 281.4713 78.4903 15.13540784156169 XW-2F 1 40910U 15049M 18199.75761035 .00000683 00000-0 38303-4 0 9993 2 40910 97.4571 203.7375 0013337 274.5465 85.4245 15.16609382156243 XW-2B 1 40911U 15049N 18199.85284214 .00000540 00000-0 32112-4 0 9998 2 40911 97.4608 203.0077 0012603 280.0230 79.9580 15.15336726156196 DCBB 1 40912U 15049P 18199.78300043 .00000866 00000-0 44821-4 0 9991 2 40912 97.4498 206.6651 0013607 260.8910 218.0531 15.18835505156461 TW-1C 1 40926U 15051B 18199.78393318 .00007426 00000-0 13615-3 0 9991 2 40926 97.1804 241.9846 0010681 150.5809 270.4510 15.49523517158207 TW-1A 1 40928U 15051D 18199.80921326 .00002086 00000-0 56287-4 0 9992 2 40928 97.1826 233.1717 0010953 198.2932 249.1582 15.38859665157644 IO-86 1 40931U 15052B 18199.66925206 .00000650 00000-0 14707-5 0 9999 2 40931 6.0026 285.6348 0013294 90.6618 269.5116 14.76579745151662 LQSat 1 40958U 15057A 18199.75197687 .00000032 00000-0 12762-4 0 9999 2 40958 97.9388 272.1972 0016940 233.9157 126.0485 14.73038563149495 AO-85 1 40967U 15058D 18199.23720036 +.00000014 +00000-0 +19953-4 0 03918 2 40967 064.7801 097.0094 0209677 304.1752 053.9652 14.75744398058236 ATHENOXAT-1 1 41168U 15077C 18199.16331019 .00001687 00000-0 55363-4 0 9990 2 41168 14.9921 153.5771 0012104 110.7476 65.1893 15.12850531143079 ChubuSat-2 1 41338U 16012B 18199.85606729 .00000296 00000-0 16406-4 0 9998 2 41338 31.0033 112.4377 0013725 26.5921 333.5417 14.99998541132594 ChubuSat-3 1 41339U 16012C 18199.79934603 .00000234 00000-0 11503-4 0 9992 2 41339 31.0114 111.3491 0013436 32.8940 327.2533 15.00184346132570 Horyu-4 1 41340U 16012D 18199.84099211 .00000439 00000-0 26852-4 0 9997 2 41340 31.0054 105.5219 0013875 47.1393 313.0406 15.01013778132658 OUFTI-1 1 41458U 16025C 18199.69216521 .00001610 00000-0 86745-4 0 9998 2 41458 98.1347 264.2234 0170975 42.5627 318.8699 15.04791050122173 e-st@r-II 1 41459U 16025D 18199.70479232 .00001546 00000-0 83959-4 0 9993 2 41459 98.1349 264.0642 0171637 43.3093 318.1477 15.04512959122164 AAUSAT4 1 41460U 16025E 18199.71930523 .00002487 00000-0 13107-3 0 9993 2 41460 98.1289 264.6311 0162082 38.8706 322.4040 15.05991902122234 LO-87 1 41557U 16033B 18199.80210606 .00001132 00000-0 44429-4 0 9990 2 41557 97.4367 283.9577 0015343 51.0981 309.1624 15.27745347118988 NuSat2 1 41558U 16033C 18199.79871171 .00001077 00000-0 41735-4 0 9994 2 41558 97.4390 284.0788 0014403 49.9075 310.3425 15.28276717118970 Lapan A3 1 41603U 16040E 18199.75870495 .00000261 00000-0 15420-4 0 9993 2 41603 97.4087 260.7057 0014627 125.3610 17.7522 15.19583318114875 Swayam 1 41607U 16040J 18199.41061629 +.00001355 +00000-0 +61684-4 0 9999 2 41607 097.4110 261.9617 0015219 125.3391 234.9270 15.22325763114858 Pratham 1 41783U 16059A 18199.73656930 .00000023 00000-0 13884-4 0 9994 2 41783 98.1153 260.7830 0033478 359.0088 1.1042 14.62932495 96576 AlSat 1N 1 41789U 16059G 18199.73570242 .00000066 00000-0 21664-4 0 9993 2 41789 98.1171 262.0699 0028253 351.1705 8.8996 14.64166462 96638 ScatSat 1 41790U 16059H 18199.55406036 -.00000007 +00000-0 +95222-5 0 9992 2 41790 098.2572 246.7711 0018247 359.7345 000.3838 14.50862030095737 TY-1 1 41844U 16066D 18199.87110050 .00001209 00000-0 53767-4 0 9994 2 41844 97.4050 206.4154 0013971 289.4729 185.3223 15.23345931 93701 Pegasus-1 1 41846U 16066F 18199.58402755 +.00000210 +00000-0 +41830-4 0 9999 2 41846 098.7519 228.6851 0368855 153.6172 208.4329 14.37362680088415 CAS-2T 1 41847U 16066G 18199.70429526 .00000008 00000-0 11328-4 0 9993 2 41847 98.7479 229.2648 0366865 150.7084 211.5230 14.37906065 88856 TO-89 1 41932U 98067KU 18199.34750863 .00034008 00000-0 19616-3 0 9994 2 41932 51.6298 180.0095 0003792 357.1716 2.9263 15.78324568 85684 AOBA-V3LOX3 1 41935U 98067KX 18199.40010344 +.00054858 +00000-0 +24827-3 0 9992 2 41935 051.6337 174.2953 0003652 012.0354 348.0735 15.83392157085862 EO-88 1 42017U 17008BX 18199.40545829 +.00001203 +00000-0 +51804-4 0 9993 2 42017 097.4462 264.2759 0004695 269.8465 090.2235 15.24535313078825 HAVELSAT 1 42700U 98067LH 18199.42414567 .00023924 00000-0 17698-3 0 9998 2 42700 51.6340 194.8297 0005072 21.2098 338.9110 15.72802994 66936 SOMP2 1 42701U 98067LJ 18199.56023638 .00018265 00000-0 14285-3 0 9990 2 42701 51.6340 195.7473 0004941 17.9679 342.1493 15.71681133 66923 PHOENIX 1 42706U 98067LP 18199.42780860 .00018043 00000-0 14931-3 0 9999 2 42706 51.6341 197.1249 0001653 1.6061 358.4941 15.70339160 66813 X-CubeSat 1 42707U 98067LQ 18199.45618136 .00027939 00000-0 19990-3 0 9993 2 42707 51.6302 194.2139 0002137 10.9566 349.1479 15.73500712 66840 qbee 1 42708U 98067LR 18199.54857442 .00022877 00000-0 17150-3 0 9991 2 42708 51.6345 194.9100 0002065 12.2607 347.8441 15.72528555 66808 ZA-AeroSat 1 42713U 98067LU 18199.41967857 .00017616 00000-0 15445-3 0 9995 2 42713 51.6335 200.0590 0001961 328.8160 31.2721 15.68950526 66435 LINK 1 42714U 98067LV 18199.39435501 .00082537 00000-0 34625-3 0 9994 2 42714 51.6222 185.3647 0003139 26.4586 333.6577 15.84830327 66736 UPSat 1 42716U 98067LX 18199.41644643 .00045488 00000-0 25719-3 0 9996 2 42716 51.6304 189.4413 0004233 26.9954 333.1266 15.78627986 66700 SpaceCube 1 42717U 98067LY 18199.51340795 .00024038 00000-0 18094-3 0 9995 2 42717 51.6313 195.3920 0003906 21.4183 338.6978 15.72394046 65879 Hoopoe 1 42718U 98067LZ 18199.42412789 .00035240 00000-0 22898-3 0 9993 2 42718 51.6304 192.5407 0004172 18.8847 341.2306 15.75603505 65907 Challenger 1 42721U 98067MA 18199.42687142 .00234226 33241-4 52067-3 0 9997 2 42721 51.6231 177.9967 0005594 41.4571 318.6861 15.97419538 65799 NJUST-1 1 42722U 98067MB 18199.56379903 .00014442 00000-0 13285-3 0 9994 2 42722 51.6344 201.0487 0005767 359.8775 0.2219 15.67938288 65500 UNSW-EC0 1 42723U 98067MC 18199.53483680 .00038941 00000-0 24183-3 0 9999 2 42723 51.6367 191.8256 0005663 12.4626 347.6513 15.76579239 65601 DUTHsat 1 42724U 98067MD 18199.39599334 .00151905 19795-4 44852-3 0 9994 2 42724 51.6283 180.9115 0005772 37.5971 322.5438 15.92288329 65652 LO-90 1 42725U 98067ME 18199.80721758 .00022587 00000-0 18222-3 0 9998 2 42725 51.6346 196.6607 0004980 6.0530 354.0527 15.70775130 65482 nSIGHT1 1 42726U 98067MF 18199.47573415 .00006389 00000-0 77722-4 0 9990 2 42726 51.6373 209.5402 0005457 357.9367 2.1604 15.61979397 65293 SNUSAT 1B 1 42727U 98067MG 18199.43783867 .00022139 00000-0 17905-3 0 9998 2 42727 51.6325 198.6345 0005750 331.5016 28.5667 15.70724633 65393 QBITO 1 42728U 98067MH 18199.53191664 .00019641 00000-0 14642-3 0 9997 2 42728 51.6362 195.6218 0003479 14.8809 345.2291 15.72770526 65282 Aalto-2 1 42729U 98067MJ 18199.44188725 .00027282 00000-0 19891-3 0 9993 2 42729 51.6330 195.6980 0003490 14.5516 345.5582 15.73069630 65283 SUSat 1 42730U 98067MK 18199.52974613 .00020093 00000-0 15903-3 0 9996 2 42730 51.6337 197.0386 0003500 12.7440 347.3645 15.71325353 65269 i-INSPIRE II 1 42731U 98067ML 18199.45232418 .00036505 00000-0 22093-3 0 9992 2 42731 51.6349 191.1879 0004164 336.0413 24.0393 15.77205316 65388 PolyITAN-2-SAU 1 42732U 98067MM 18199.59284222 .00025701 00000-0 18585-3 0 9995 2 42732 51.6325 194.4231 0004749 326.0394 34.0300 15.73294007 65354 ExAlta-1 1 42734U 98067MP 18199.54557349 .00038470 00000-0 22261-3 0 9998 2 42734 51.6274 190.2548 0006096 358.5044 1.5937 15.78175792 65352 Aoxiang-1 1 42735U 98067MQ 18199.84103406 .00017352 00000-0 15622-3 0 9992 2 42735 51.6334 199.1231 0006148 358.2011 1.8962 15.68296561 66681 BeEagleSat 1 42736U 98067MR 18199.48430948 .00020463 00000-0 17133-3 0 9993 2 42736 51.6331 198.9760 0006004 358.3030 1.7946 15.69941762 65340 CAS-4B 1 42759U 17034B 18199.71391064 .00000095 00000-0 19425-4 0 9990 2 42759 43.0193 270.1893 0010702 302.5055 201.9510 15.09325006 60217 CAS-4A 1 42761U 17034D 18199.69323270 .00000062 00000-0 17362-4 0 9996 2 42761 43.0190 270.0535 0010970 304.0028 196.0771 15.09400792 60201 UCLSat 1 42765U 17036A 18199.11143488 +.00000932 +00000-0 +43918-4 0 9992 2 42765 097.3987 258.4595 0010948 336.0972 023.9754 15.21925336060002 NIUSat 1 42766U 17036B 18199.72392543 .00000765 00000-0 38125-4 0 9996 2 42766 97.3986 258.2690 0014756 318.4928 41.5186 15.20455451 59325 LituanicaSAT 2 1 42768U 17036D 18199.70408583 .00001611 00000-0 74564-4 0 9996 2 42768 97.4003 258.6282 0014441 320.8889 39.1302 15.21492789 59355 Aalto 1 1 42775U 17036L 18199.35284986 +.00000651 +00000-0 +32599-4 0 9999 2 42775 097.3980 258.1309 0013045 321.0096 039.0198 15.20800168059235 URSA MAIOR 1 42776U 17036M 18199.46936164 .00000718 00000-0 35545-4 0 9992 2 42776 97.3987 258.3029 0012880 320.8051 39.2251 15.20883254 59259 Max Valier Sat 1 42778U 17036P 18199.81765765 .00000794 00000-0 38467-4 0 9990 2 42778 97.4012 259.0028 0011479 325.6480 34.4012 15.21373935 59310 Pegasus 1 42784U 17036V 18199.41579312 .00000952 00000-0 45033-4 0 9997 2 42784 97.3990 258.6773 0011447 334.6020 25.4652 15.21733017 59263 NUDATSat 1 42787U 17036Y 18199.58489969 +.00001396 +00000-0 +63490-4 0 9996 2 42787 097.3998 259.0756 0010926 333.7512 026.3170 15.22339265059147 SUCHAI 1 1 42788U 17036Z 18199.10444165 +.00001041 +00000-0 +48561-4 0 9993 2 42788 097.3991 258.4824 0011078 335.8343 024.2372 15.22012307059296 SKCUBE 1 42789U 17036AA 18199.23617002 +.00001074 +00000-0 +50068-4 0 9991 2 42789 097.3989 258.6041 0010915 335.4691 024.6024 15.21970559059231 VZLUSAT 1 1 42790U 17036AB 18199.11368163 +.00001289 +00000-0 +58851-4 0 9997 2 42790 097.3994 258.6192 0010546 336.2991 023.7758 15.22356890059228 VENTA 1 1 42791U 17036AC 18199.41392854 +.00000974 +00000-0 +45627-4 0 9992 2 42791 097.3987 258.8206 0010541 335.8131 024.2609 15.22018438059252 Robusta 1B 1 42792U 17036AD 18199.26765220 +.00001141 +00000-0 +52781-4 0 9993 2 42792 097.3988 258.7037 0010522 336.7394 023.3365 15.22116464059252 D-SAT 1 42794U 17036AF 18199.78965414 .00000159 00000-0 19313-4 0 9991 2 42794 97.5889 253.2502 0127195 176.3959 183.8207 14.90890266 58432 BIRD-J 1 42820U 98067MU 18199.44512434 +.00019540 +00000-0 +17018-3 0 9990 2 42820 051.6334 201.7249 0002282 317.4857 042.5962 15.69030313058781 BIRD-G 1 42821U 98067MV 18199.44467280 +.00018944 +00000-0 +16926-3 0 9993 2 42821 051.6335 202.4746 0002317 317.2898 042.7918 15.68427336058759 BIRD-M 1 42822U 98067MW 18199.86682863 .00017774 00000-0 15718-3 0 9994 2 42822 51.6335 200.0475 0002371 321.6657 38.4171 15.68731054 58809 BIRD-B 1 42823U 98067MX 18199.41488371 +.00020193 +00000-0 +17709-3 0 9995 2 42823 051.6343 202.2998 0004863 325.7765 034.2918 15.68827028058750 BIRD-N 1 42824U 98067MY 18199.44340712 +.00019377 +00000-0 +17177-3 0 9996 2 42824 051.6347 202.5083 0004776 325.8617 034.2072 15.68595903058758 TechnoSat 1 42829U 17042E 18199.70821975 .00000020 00000-0 74605-5 0 9995 2 42829 97.5938 100.8704 0015862 94.1454 266.1578 14.90837683 55023 TOMSK-TPU 120 1 42910U 98067MZ 18199.49112481 .00012846 00000-0 13270-3 0 9991 2 42910 51.6336 207.2841 0005991 338.3039 21.7702 15.65145835 52288 TANYUSHA 1 1 42911U 98067NA 18199.83580608 .00016138 00000-0 15780-3 0 9996 2 42911 51.6342 204.3733 0005453 337.1236 22.9516 15.66309862 52338 TANYUSHA 2 1 42912U 98067NB 18199.59499391 .00012707 00000-0 12866-3 0 9998 2 42912 51.6360 206.4965 0005214 347.5757 12.5109 15.65671722 52303 SFERA 2 1 42913U 98067NC 18199.55200679 +.00040117 +00000-0 +26579-3 0 9996 2 42913 051.6326 197.1213 0004794 012.0500 348.0613 15.75088532052422 TNS 0-2 1 42914U 98067ND 18199.85962280 .00013524 00000-0 14041-3 0 9996 2 42914 51.6347 206.0408 0005072 342.1693 17.9123 15.64967792 52321 QIKCOM-1 1 42983U 98067NF 18199.67049061 .00001898 00000-0 33190-4 0 9993 2 42983 51.6384 219.0927 0003982 323.2520 36.8198 15.56437941 41122 AO-91 1 43017U 17073E 18199.35351788 .00000304 00000-0 29349-4 0 9999 2 43017 97.7073 129.1894 0259859 169.8592 190.8010 14.78107995 35718 EcAMSat 1 43019U 98067NG 18199.59993062 .00003268 00000-0 50500-4 0 9991 2 43019 51.6387 218.6254 0004547 296.4150 63.6375 15.57359688123445 PICSAT 1 43132U 18004X 18199.71869548 .00000959 00000-0 44176-4 0 9991 2 43132 97.5319 262.4808 0009752 358.3837 1.7366 15.22719899 28511 AO-92 1 43137U 18004AC 18199.83734003 .00000838 00000-0 38931-4 0 9994 2 43137 97.5314 262.6229 0009327 0.3073 359.8168 15.22776952 28525 TianYi 2 1 43155U 18008A 18199.83313316 .00000866 00000-0 56077-4 0 9990 2 43155 97.5232 273.7713 0019046 40.0735 97.2452 15.10611441 27267 Zhou Enlai 1 43156U 18008B 18199.83247987 .00001006 00000-0 65565-4 0 9990 2 43156 97.5280 273.7273 0016153 37.6329 99.6959 15.10075152 27259 TianYi 6 1 43158U 18008D 18199.79597928 .00000589 00000-0 40349-4 0 9998 2 43158 97.5233 273.5221 0014982 35.2158 80.6542 15.09774506 27224 S-Net G 1 43186U 18014G 18199.78287343 -.00000201 00000-0 -12584-4 0 9995 2 43186 97.7230 107.8506 0012447 50.7689 309.4635 14.96473887 25040 S-Net H 1 43187U 18014H 18199.84964284 -.00000209 00000-0 -13309-4 0 9993 2 43187 97.7229 107.9129 0012438 50.5023 309.7296 14.96474762 25051 S-Net J 1 43188U 18014J 18199.78268363 -.00000195 00000-0 -12061-4 0 9990 2 43188 97.7232 107.8522 0012446 50.7837 309.4487 14.96475585 25048 S-Net K 1 43189U 18014K 18199.78281020 -.00000204 00000-0 -12799-4 0 9995 2 43189 97.7229 107.8461 0012430 50.7463 309.4860 14.96474370 23599 FMN 1 1 43192U 18015A 18199.90583343 .00001705 00000-0 75389-4 0 9996 2 43192 97.3595 328.1486 0018236 35.0995 325.1439 15.22922915 25341 Shaonian Xing 1 43199U 18015H 18199.60730575 +.00001268 +00000-0 +55413-4 0 9991 2 43199 097.3386 327.6044 0018939 049.3372 310.9509 15.23769863025327 1KUNS-PF 1 43466U 98067NP 18199.51573596 .00008435 00000-0 12465-3 0 9993 2 43466 51.6384 221.8045 0000541 28.5690 331.5331 15.56234501 10578 UBAKUSAT 1 43467U 98067NQ 18199.64713411 .00005441 00000-0 83547-4 0 9994 2 43467 51.6386 221.1838 0001937 255.2830 104.7947 15.56013388 10604 Irazu 1 43468U 98067NR 18199.50963852 .00008978 00000-0 13106-3 0 9997 2 43468 51.6382 221.7636 0000653 34.6777 325.4257 15.56478173110565 OBJECT NU 1 43546U 98067NU 18199.57974307 .00009993 00000-0 15564-3 0 9996 2 43546 51.6407 222.2222 0005899 323.0462 37.0122 15.54536030 717 OBJECT NV 1 43547U 98067NV 18199.19403524 +.00009185 +00000-0 +14373-3 0 9993 2 43547 051.6372 224.1472 0006238 319.2395 040.8129 15.54521004000339 OBJECT NW 1 43548U 98067NW 18199.57976396 +.00006281 +00000-0 +10072-3 0 9994 2 43548 051.6401 222.2224 0006201 331.9194 028.1461 15.54490261000849 OBJECT NX 1 43549U 98067NX 18199.51546538 .00005418 00000-0 87879-4 0 9991 2 43549 51.6401 222.5472 0006620 334.2047 25.8613 15.54492544 395 OBJECT NY 1 43550U 98067NY 18199.57963804 +.00009648 +00000-0 +15044-3 0 9991 2 43550 051.6389 222.2217 0005917 346.3671 013.7158 15.54553417000871 OBJECT NZ 1 43551U 98067NZ 18199.51488155 .00007767 00000-0 12184-3 0 9999 2 43551 51.6408 222.5437 0006285 337.3471 22.7254 15.54711287 809 OBJECT PA 1 43552U 98067PA 18199.51480487 .00006812 00000-0 10769-3 0 9997 2 43552 51.6419 222.5430 0005198 332.1038 27.9675 15.54730336 775 OBJECT PB 1 43553U 98067PB 18199.32194093 +.00007149 +00000-0 +11259-3 0 9991 2 43553 051.6404 223.5022 0006889 337.4979 022.5711 15.54741312000798 OBJECT PC 1 43554U 98067PC 18199.51476871 .00005101 00000-0 82446-4 0 9993 2 43554 51.6407 222.5387 0006998 339.7993 20.2739 15.54735552 342 /EX